Miscellaneous Local Product
Issued by NWS North Platte, NE

Home | Current Version | Previous Version | Text Only | Print | Product List | Glossary On
Versions: 1 2 3 4 5 6 7 8 9 10 11 12 13 14 15 16 17 18 19 20 21 22 23 24 25 26 27 28 29 30 31 32 33 34 35 36 37 38 39 40 41 42 43 44 45 46 47 48 49 50
756
AXUS43 KLBF 251010
MISLBF


WESTERN AND NORTH CENTRAL NEBRASKA HOURLY WEATHER ROUNDUP
NATIONAL WEATHER SERVICE NORTH PLATTE NE
400 AM CST SUN FEB 25 2018

NOTE: "FAIR" INDICATES FEW OR NO CLOUDS BELOW 12,000 FEET WITH NO
SIGNIFICANT WEATHER AND/OR OBSTRUCTIONS TO VISIBILITY.

NOTE: STATIONS NOT REPORTING VARIABLES SUCH AS SKY/WEATHER OR
PRESSURE ARE PROVIDED BY RAWS AND APRS NETWORKS AND ARE NOT UNDER
NATIONAL WEATHER SERVICE QUALITY CONTROL.

...OBSERVATIONS IN AND NEAR THE EASTERN PANHANDLE OF NEBRASKA...

CITY           SKY/WX    TMP DP  RH WIND       PRES   REMARKS
PINE RIDGE     MOCLDY   N/A N/A N/A MISG      29.78F
GORDON         FAIR      17   7  64 W8        29.76S WCI   7
CHADRON        MOCLDY     4   0  83 W6        29.79F WCI  -7
ALLIANCE       CLOUDY    20  12  71 W8        29.77F WCI  10
SIDNEY         CLOUDY    26   8  46 W16       29.81F WCI  14
CRESCENT LAKE    N/A     26  13  57 W10G17      N/A  WCI  16
$$

...OBSERVATIONS IN NORTHERN NEBRASKA AND FAR SOUTHERN SOUTH DAKOTA...

CITY           SKY/WX    TMP DP  RH WIND       PRES   REMARKS
WINNER         FAIR      23  10  57 W16       29.74R WCI  10
VALENTINE      PTCLDY    18   7  62 W13       29.77F WCI   5
AINSWORTH      PTCLDY    18  10  70 W13       29.77S WCI   5
O`NEILL        CLEAR     19  10  68 W14       29.78S WCI   6
THEDFORD       PTCLDY    23  13  66 W14       29.79F WCI  10
BROKEN BOW     CLEAR     20   8  60 W13       29.81F WCI   7
ORD            CLEAR     17   9  70 N5        29.83S WCI  10
ALBION         CLEAR     18  11  73 NW7       29.82F WCI   9
VALENTINE NWR    N/A     20   8  59 W12         N/A  WCI   8
HALSEY           N/A     21   8  57 W8G16       N/A  WCI  11
BUTTE            N/A     18  11  74 W12G20      N/A  WCI   6
CHAMBERS         N/A     17   6  62 CALM        N/A
EWING            N/A     18  11  73 W7          N/A  WCI   9
$$

...OBSERVATIONS IN SOUTHWEST NEBRASKA AND FAR NORTHEAST COLORADO...

CITY           SKY/WX    TMP DP  RH WIND       PRES   REMARKS
WRAY           FAIR      25  16  68 W7        29.86F WCI  17
HOLYOKE        FAIR      28  16  59 W9        29.84F WCI  20
IMPERIAL       CLOUDY    27  17  66 SW8       29.86F WCI  19
OGALLALA       MOCLDY    21  13  72 CALM      29.82F
NORTH PLATTE   MOCLDY     7   1  76 CALM      29.84F
MCCOOK         PTCLDY    23  15  71 W7        29.89F WCI  15
LEXINGTON      CLEAR     16  12  84 CALM      29.87S
STAPLETON        N/A     17  11  77 CALM        N/A
$$

...OBSERVATIONS IN CENTRAL LINCOLN COUNTY AREA...

CITY           SKY/WX    TMP DP  RH WIND       PRES   REMARKS
N.P. AIRPORT   MOCLDY     7   1  76 CALM      29.84F
N.P. DOWNTOWN    N/A     10   7  89 CALM        N/A
N.P. SOUTHEAST   N/A     14   9  79 CALM        N/A
N.P. HILLCREST   N/A     16  11  81 CALM        N/A
$$

...OBSERVATIONS ACROSS THE ROCKIES AND WESTERN HIGH PLAINS...

CITY           SKY/WX    TMP DP  RH WIND       PRES   REMARKS
RAPID CITY     CLEAR      9  -1  64 CALM      29.71S
SCOTTSBLUFF    CLOUDY    22  13  68 NW6       29.80F WCI  14
CHEYENNE       PTCLDY    18   4  54 W18       29.75F WCI   2
DENVER         PTCLDY    17   4  56 SW8       29.81S WCI   7
BERTHOUD PASS  LGT SNOW  -6 -17  59 NW33G43   29.57F VSB 3/4 WCI -35
COPPER MTN     LGT SNOW   1  -6  71 W14       29.65F WCI -17
MONARCH PASS   CLOUDY     1  -4  78 W31G41    29.76F WCI -24
ASPEN          CLOUDY    12   9  87 CALM      29.85R FOG
LARAMIE        PTCLDY    10   2  69 W7        29.74F WCI  -1
CASPER         CLOUDY    18   9  68 SW17      29.77F WCI   3
$$

...OBSERVATIONS ACROSS THE NORTHERN PLAINS...

CITY           SKY/WX    TMP DP  RH WIND       PRES   REMARKS
BISMARCK       CLOUDY    22  18  85 W16G24    29.59S WCI   8
FARGO          FAIR      10   8  92 W9        29.51F WCI  -3
PIERRE         CLEAR     19  11  70 W18       29.70S WCI   4
SIOUX FALLS    CLEAR     11   6  81 W7        29.70S WCI   0
$$

...OBSERVATIONS ACROSS THE CENTRAL AND SOUTHERN PLAINS...

CITY           SKY/WX    TMP DP  RH WIND       PRES   REMARKS
OMAHA          CLEAR     23  15  71 SW3       29.87S
GRAND ISLAND   CLEAR     21  14  74 SW13      29.87S WCI   9
KANSAS CITY    CLEAR     27  20  75 W7        29.95S WCI  19
WICHITA        CLEAR     27  21  78 CALM      29.98S
DODGE CITY     CLOUDY    26   8  46 E7        29.94F WCI  18
OKLAHOMA CITY  CLEAR     30  29  96 NE5       29.98F FOG     WCI  25
DALLAS         PTCLDY    43  40  89 CALM      30.00S
AMARILLO       CLEAR     39   5  24 W15       29.92F WCI  31
$$




USA.gov is the U.S. government's official web portal to all federal, state and local government web resources and services.